EW3230 West Wareham MA US current weather conditions

sailwx.info

Dewpoint 3.6° C

Last reported at 2020-Oct-25 12:06 UTC.
Time now 2020-Oct-26 04:14 UTC

Location: N 41°48' W 070°47'.
View on Google Maps.

See reports from other nearby stations

  
Tides and Currents Weather Stations Pressure Air Temp Water Temp Dewpoint Dewpoint Depression Visibility Wind Speed Wind Dir Waves Ship Positions
date/time (UTC)wind fromknots sea level pressurealtimeterstation pressurevisibilityair tempwater tempwave heightnotes
2020-Oct-25 12:06
2020-Oct-25 10:05
2020-Oct-25 09:06 293 7.8
2020-Oct-25 08:05 040 7.8
2020-Oct-25 07:55 041 7.8
2020-Oct-25 07:46 356 7.8
2020-Oct-25 07:35 322 7.8
2020-Oct-25 07:25 329 7.8
2020-Oct-25 07:15 180 7.2
2020-Oct-25 07:05 339 7.2
2020-Oct-25 06:55 242 7.2
2020-Oct-25 06:45 354 7.8
2020-Oct-25 06:35 350 7.8
2020-Oct-25 06:25 343 7.8
2020-Oct-25 06:15 315 7.8
2020-Oct-25 06:05 332 7.8
2020-Oct-25 05:55 352 8.3
2020-Oct-25 05:45 050 8.3
2020-Oct-25 05:35 280 8.3
2020-Oct-25 05:25 345 0 8.3
2020-Oct-25 05:15 242 8.3
2020-Oct-25 05:05 300 8.3
2020-Oct-25 04:55 311 0 gusting 4 8.3
2020-Oct-25 04:45 295 0 gusting 4 8.9
2020-Oct-25 04:35 287 8.9
2020-Oct-25 04:25 009 0 gusting 3 9.4
2020-Oct-25 04:15 065 0 gusting 6 9.4
2020-Oct-25 04:05 329 0 gusting 5 10.0
2020-Oct-25 03:55 334 1 gusting 6 10.6
2020-Oct-25 03:45 193 0 gusting 3 11.1
2020-Oct-25 03:35 339 0 gusting 6 11.1
2020-Oct-25 03:25 294 0 gusting 6 11.7
2020-Oct-25 03:15 012 0 gusting 5 12.2
2020-Oct-25 03:05 308 0 gusting 3 12.8
2020-Oct-25 02:55 271 0 gusting 9 12.8
2020-Oct-25 02:45 332 0 gusting 9 13.3
2020-Oct-25 02:35 101 0 gusting 10 13.3
2020-Oct-25 02:25 342 0 gusting 3 13.9
2020-Oct-25 02:15 336 0 gusting 5 13.9
2020-Oct-25 02:05 348 0 gusting 5 14.4
2020-Oct-25 01:55 308 0 gusting 6 14.4
2020-Oct-25 01:45 304 1 gusting 6 14.4
2020-Oct-25 01:35 15.0
2020-Oct-25 01:25 335 0 gusting 6 15.0
2020-Oct-25 01:15 291 0 gusting 8 15.6
2020-Oct-25 01:05 288 16.1
2020-Oct-25 00:55 325 0 gusting 8 16.1
2020-Oct-25 00:45 317 16.1
2020-Oct-25 00:35 322 16.7
2020-Oct-25 00:25 018 16.7
2020-Oct-25 00:15 239 16.7
2020-Oct-25 00:05 239 16.7
2020-Oct-24 23:55 239 16.7
2020-Oct-24 23:45 239 16.7
2020-Oct-24 23:35 239 17.2
2020-Oct-24 23:25 239 17.8
2020-Oct-24 23:15 240 17.8
2020-Oct-24 23:05 238 17.8
2020-Oct-24 22:55 281 17.8
2020-Oct-24 22:45 279 18.3
2020-Oct-24 22:35 281 18.3
2020-Oct-24 22:25 281 18.3
2020-Oct-24 22:15 281 18.3
2020-Oct-24 22:05 281 18.3
2020-Oct-24 21:55 256 18.3
2020-Oct-24 21:45 226 18.9
2020-Oct-24 21:35 158 18.9
2020-Oct-24 21:25 281 18.9
2020-Oct-24 21:15 281 18.9
2020-Oct-24 21:05 281 18.9
2020-Oct-24 20:55 281 19.4
2020-Oct-24 20:45 281 19.4
2020-Oct-24 20:35 281 19.4
2020-Oct-24 20:25 281 19.4
2020-Oct-24 20:15 282 19.4
2020-Oct-24 20:05 254 19.4
2020-Oct-24 19:55 274 19.4
2020-Oct-24 19:45 240 19.4
2020-Oct-24 19:35 252 19.4
2020-Oct-24 19:25 208 19.4
2020-Oct-24 19:15 219 19.4
2020-Oct-24 19:05 269 19.4
2020-Oct-24 18:55 212 19.4
2020-Oct-24 18:44 250 18.9
2020-Oct-24 18:35 264 18.9
2020-Oct-24 18:24 220 18.9
2020-Oct-24 18:15 218 18.9
2020-Oct-24 18:05 218 18.9
2020-Oct-24 17:54 218 18.9
2020-Oct-24 17:45 240 18.9
2020-Oct-24 17:34 220 18.9
2020-Oct-24 17:24 245 18.9
2020-Oct-24 17:14 205 18.9
2020-Oct-24 17:04 186 18.9
2020-Oct-24 16:54 175 0 gusting 6 18.9
2020-Oct-24 16:44 235 18.9
2020-Oct-24 16:34 283 18.9
2020-Oct-24 16:24 238 19.4
2020-Oct-24 16:14 224 19.4
2020-Oct-24 16:04 240 18.9
2020-Oct-24 15:54 217 18.9
2020-Oct-24 15:44 239 18.9
2020-Oct-24 15:34 203 18.9
2020-Oct-24 15:24 224 18.3
2020-Oct-24 15:14 146 18.3
2020-Oct-24 15:04 276 17.8
2020-Oct-24 14:54 256 17.2
2020-Oct-24 14:44 169 17.2
2020-Oct-24 14:34 217 16.7
2020-Oct-24 14:24 190 16.7
2020-Oct-24 14:14 219 16.1
2020-Oct-24 14:04 210 16.1
2020-Oct-24 13:54 248 15.6
2020-Oct-24 13:44 211 15.6
2020-Oct-24 13:34 278 15.0
2020-Oct-24 13:24 214 14.4
2020-Oct-24 13:14 205 14.4
2020-Oct-24 13:04 265 13.9
2020-Oct-24 12:54 238 13.9
2020-Oct-24 12:44 238 13.9
2020-Oct-24 12:34 238 13.3
2020-Oct-24 12:24 238 13.3
2020-Oct-24 12:14 238 12.8
2020-Oct-24 12:04 238 12.8
2020-Oct-24 11:54 238 12.8
2020-Oct-24 11:44 238 12.8
2020-Oct-24 11:34 238 12.8
2020-Oct-24 11:24 238 12.8
2020-Oct-24 11:14 238 12.8
2020-Oct-24 11:04 238 12.8
2020-Oct-24 10:54 238 12.8
2020-Oct-24 10:44 238 12.8
2020-Oct-24 10:34 238 12.8
2020-Oct-24 10:24 238 12.8
2020-Oct-24 10:14 238 12.8
2020-Oct-24 10:04 237 12.8
2020-Oct-24 09:54 238 12.8
2020-Oct-24 09:44 304 12.8
2020-Oct-24 09:34 305 12.8
2020-Oct-24 09:24 305 12.8
2020-Oct-24 09:14 304 12.8
2020-Oct-24 09:04 016 12.8
2020-Oct-24 08:54 016 12.8
2020-Oct-24 08:44 016 12.8
2020-Oct-24 08:34 016 12.2
2020-Oct-24 08:24 032 12.2
2020-Oct-24 08:14 031 12.2
2020-Oct-24 08:04 032 12.8
2020-Oct-24 07:54 042 12.8
2020-Oct-24 07:44 043 12.8
2020-Oct-24 07:34 043 12.8
2020-Oct-24 07:24 041 12.8
2020-Oct-24 07:14 044 12.8
2020-Oct-24 07:04 044 12.8
2020-Oct-24 06:54 043 12.8
2020-Oct-24 06:44 043 12.8
2020-Oct-24 06:24 043 12.8
2020-Oct-24 06:14 044 12.8
2020-Oct-24 06:04 042 12.8
2020-Oct-24 05:54 042 12.8
2020-Oct-24 05:44 042 12.8
2020-Oct-24 05:34 042 12.8
2020-Oct-24 05:24 043 12.8
2020-Oct-24 05:14 043 12.8
2020-Oct-24 05:04 042 12.8
2020-Oct-24 04:54 049 12.2
2020-Oct-24 04:44 051 12.2
2020-Oct-24 04:34 325 12.2
2020-Oct-24 04:24 324 12.2
2020-Oct-24 04:14 324 12.2
2020-Oct-24 04:03 326 12.2